When you browse on this site, cookies collect data to enhance your experience and personalize the content and advertising you see.
Visit our Privacy Policy to learn more. By continuing to use the site, you agree to this use of cookies and data.
  • In Germany
  • List of Countries
  • For 7 days
  • Water Temperature
  • Weather Map
  • Weather Widgets
  • user-avatar
    Login

    Hourly Weather Kashina

    Today, 17 October, Thursday

    Time Temperature Precipitation Wind Pressure Humidity
    00:00 -3°C° 0 mm 4 mps 744 mmHg 83%
    01:00 -3°C° 0 mm 4 mps 744 mmHg 83%
    02:00 -3°C° 0 mm 4 mps 745 mmHg 83%
    03:00 -3°C° 0 mm 4 mps 746 mmHg 82%
    04:00 -1°C° 0 mm 3 mps 746 mmHg 83%
    05:00 -1°C° 0 mm 3 mps 746 mmHg 83%
    06:00 -1°C° 0 mm 3 mps 747 mmHg 82%
    07:00 -2°C° 0 mm 4 mps 747 mmHg 81%
    08:00 -2°C° 0 mm 4 mps 747 mmHg 77%
    09:00 -1°C° 0 mm 4 mps 747 mmHg 74%
    10:00 -1°C° 0 mm 4 mps 747 mmHg 70%
    11:00 0°C° 0 mm 4 mps 747 mmHg 68%
    12:00 0°C° 0 mm 4 mps 747 mmHg 66%
    13:00 0°C° 0 mm 4 mps 747 mmHg 65%
    14:00 +1°C° 0 mm 3 mps 747 mmHg 66%
    15:00 +1°C° 0 mm 3 mps 747 mmHg 68%
    16:00 +1°C° 0 mm 3 mps 747 mmHg 70%
    17:00 +1°C° 0.1 mm 2 mps 747 mmHg 77%
    18:00 +1°C° 0.1 mm 2 mps 747 mmHg 84%
    19:00 -1°C° 0.1 mm 2 mps 747 mmHg 91%
    20:00 -1°C° 0.5 mm 2 mps 746 mmHg 93%
    21:00 -1°C° 0.5 mm 2 mps 746 mmHg 95%
    22:00 -1°C° 0.5 mm 2 mps 745 mmHg 97%
    23:00 -1°C° 0.5 mm 2 mps 745 mmHg 97%

    Tomorrow, 18 October, Friday

    Time Temperature Precipitation Wind Pressure Humidity
    00:00 -1°C° 0.5 mm 2 mps 744 mmHg 97%
    01:00 -1°C° 0.5 mm 3 mps 743 mmHg 97%
    02:00 -1°C° 0.6 mm 3 mps 743 mmHg 97%
    03:00 -1°C° 0.6 mm 3 mps 742 mmHg 97%
    04:00 -1°C° 0.6 mm 3 mps 742 mmHg 98%
    05:00 +1°C° 0.5 mm 2 mps 741 mmHg 98%
    06:00 +1°C° 0.5 mm 2 mps 740 mmHg 98%
    07:00 +3°C° 0.5 mm 1 mps 740 mmHg 98%
    08:00 +3°C° 0.4 mm 1 mps 740 mmHg 98%
    09:00 +4°C° 0.4 mm 1 mps 740 mmHg 98%
    10:00 +4°C° 0.4 mm 1 mps 739 mmHg 98%
    11:00 +4°C° 0.4 mm 1 mps 739 mmHg 98%
    12:00 +4°C° 0.4 mm 1 mps 739 mmHg 98%
    13:00 +4°C° 0.4 mm 1 mps 739 mmHg 98%
    14:00 +4°C° 0.7 mm 1 mps 739 mmHg 98%
    15:00 +3°C° 0.7 mm 2 mps 739 mmHg 98%
    16:00 +2°C° 0.7 mm 2 mps 740 mmHg 98%
    17:00 +1°C° 0.6 mm 3 mps 740 mmHg 97%
    18:00 -1°C° 0.6 mm 4 mps 740 mmHg 97%
    19:00 -1°C° 0.6 mm 4 mps 740 mmHg 96%
    20:00 -1°C° 0.1 mm 4 mps 741 mmHg 95%
    21:00 -2°C° 0.1 mm 4 mps 742 mmHg 94%
    22:00 -2°C° 0.1 mm 4 mps 742 mmHg 93%
    23:00 -2°C° 0.1 mm 4 mps 743 mmHg 92%

    Day after tomorrow, 19 October, Saturday

    Time Temperature Precipitation Wind Pressure Humidity
    00:00 -3°C° 0.1 mm 4 mps 743 mmHg 92%
    01:00 -3°C° 0.1 mm 4 mps 744 mmHg 91%
    02:00 -4°C° 0 mm 4 mps 744 mmHg 90%
    03:00 -4°C° 0 mm 4 mps 745 mmHg 89%
    04:00 -5°C° 0 mm 3 mps 746 mmHg 88%
    05:00 -6°C° 0 mm 3 mps 746 mmHg 90%
    06:00 -6°C° 0 mm 3 mps 747 mmHg 92%
    07:00 -7°C° 0 mm 3 mps 747 mmHg 93%
    08:00 -6°C° 0 mm 3 mps 748 mmHg 89%
    09:00 -5°C° 0 mm 3 mps 748 mmHg 85%
    10:00 -4°C° 0 mm 3 mps 749 mmHg 80%
    11:00 -4°C° 0 mm 3 mps 749 mmHg 78%
    12:00 -2°C° 0 mm 3 mps 749 mmHg 76%
    13:00 -1°C° 0 mm 3 mps 750 mmHg 73%
    14:00 -2°C° 0 mm 2 mps 750 mmHg 76%
    15:00 -2°C° 0 mm 2 mps 750 mmHg 79%
    16:00 -3°C° 0 mm 2 mps 750 mmHg 81%
    17:00 -4°C° 0 mm 2 mps 751 mmHg 85%
    18:00 -5°C° 0 mm 2 mps 751 mmHg 88%
    19:00 -5°C° 0 mm 2 mps 751 mmHg 91%
    20:00 -4°C° 0 mm 1 mps 752 mmHg 92%
    21:00 -4°C° 0 mm 1 mps 752 mmHg 92%
    22:00 -4°C° 0 mm 1 mps 752 mmHg 93%
    23:00 -4°C° 0 mm 1 mps 752 mmHg 93%

    20 October, Sunday

    Time Temperature Precipitation Wind Pressure Humidity
    00:00 -4°C° 0 mm 1 mps 752 mmHg 94%
    01:00 -4°C° 0 mm 1 mps 752 mmHg 95%
    02:00 -4°C° 0 mm 1 mps 753 mmHg 94%
    03:00 -6°C° 0 mm 2 mps 753 mmHg 94%
    04:00 -6°C° 0 mm 2 mps 753 mmHg 94%
    05:00 -6°C° 0 mm 2 mps 753 mmHg 93%
    06:00 -6°C° 0 mm 2 mps 753 mmHg 93%
    07:00 -6°C° 0 mm 2 mps 753 mmHg 92%
    08:00 -5°C° 0 mm 3 mps 753 mmHg 86%
    09:00 -4°C° 0 mm 3 mps 753 mmHg 80%
    10:00 -2°C° 0 mm 3 mps 753 mmHg 75%
    11:00 -1°C° 0 mm 3 mps 753 mmHg 73%
    12:00 0°C° 0 mm 3 mps 753 mmHg 71%
    13:00 0°C° 0 mm 4 mps 752 mmHg 70%
    14:00 0°C° 0 mm 3 mps 752 mmHg 73%
    15:00 0°C° 0 mm 3 mps 752 mmHg 76%
    16:00 +1°C° 0 mm 2 mps 752 mmHg 80%
    17:00 -1°C° 0 mm 2 mps 752 mmHg 83%
    18:00 -1°C° 0 mm 2 mps 751 mmHg 85%
    19:00 -2°C° 0 mm 2 mps 751 mmHg 88%
    20:00 -2°C° 0 mm 2 mps 751 mmHg 88%
    21:00 -2°C° 0 mm 3 mps 751 mmHg 88%
    22:00 -1°C° 0 mm 3 mps 751 mmHg 88%
    23:00 -1°C° 0 mm 3 mps 750 mmHg 88%

    21 October, Monday

    Time Temperature Precipitation Wind Pressure Humidity
    00:00 0°C° 0 mm 3 mps 750 mmHg 89%
    01:00 0°C° 0 mm 3 mps 749 mmHg 89%
    02:00 0°C° 0 mm 3 mps 749 mmHg 89%
    03:00 0°C° 0 mm 3 mps 749 mmHg 89%
    04:00 0°C° 0 mm 3 mps 748 mmHg 90%
    05:00 +1°C° 0 mm 3 mps 748 mmHg 88%
    06:00 0°C° 0 mm 4 mps 747 mmHg 87%
    07:00 0°C° 0 mm 4 mps 747 mmHg 86%
    08:00 +1°C° 0.2 mm 4 mps 746 mmHg 86%
    09:00 +1°C° 0.2 mm 4 mps 746 mmHg 86%
    10:00 +1°C° 0.2 mm 4 mps 745 mmHg 86%
    11:00 +3°C° 0.1 mm 4 mps 745 mmHg 87%
    12:00 +3°C° 0.1 mm 4 mps 745 mmHg 88%
    13:00 +4°C° 0.1 mm 4 mps 745 mmHg 88%
    14:00 +4°C° 0 mm 4 mps 744 mmHg 89%
    15:00 +3°C° 0 mm 4 mps 744 mmHg 90%
    16:00 +3°C° 0 mm 4 mps 744 mmHg 91%
    17:00 +3°C° 0.1 mm 4 mps 744 mmHg 92%
    18:00 +4°C° 0.1 mm 4 mps 744 mmHg 92%
    19:00 +4°C° 0.1 mm 4 mps 744 mmHg 92%
    20:00 +4°C° 0 mm 4 mps 743 mmHg 92%
    21:00 +4°C° 0 mm 4 mps 743 mmHg 92%
    22:00 +4°C° 0 mm 4 mps 742 mmHg 92%
    23:00 +4°C° 0 mm 4 mps 742 mmHg 92%

    22 October, Tuesday

    Time Temperature Precipitation Wind Pressure Humidity
    00:00 +4°C° 0 mm 4 mps 741 mmHg 92%
    01:00 +4°C° 0 mm 4 mps 740 mmHg 92%
    02:00 +5°C° 0.2 mm 4 mps 740 mmHg 92%
    03:00 +5°C° 0.2 mm 5 mps 739 mmHg 91%
    04:00 +5°C° 0.2 mm 5 mps 738 mmHg 90%
    05:00 +6°C° 0.2 mm 5 mps 738 mmHg 89%
    06:00 +5°C° 0.2 mm 6 mps 737 mmHg 88%
    07:00 +7°C° 0.2 mm 6 mps 736 mmHg 88%
    08:00 +7°C° 0.1 mm 6 mps 736 mmHg 87%
    09:00 +8°C° 0.1 mm 6 mps 736 mmHg 86%
    10:00 +8°C° 0.1 mm 5 mps 736 mmHg 86%
    11:00 +9°C° 0 mm 5 mps 736 mmHg 84%
    12:00 +9°C° 0 mm 5 mps 736 mmHg 82%
    13:00 +11°C° 0 mm 4 mps 737 mmHg 80%
    14:00 +10°C° 0.1 mm 4 mps 737 mmHg 83%
    15:00 +10°C° 0.1 mm 4 mps 737 mmHg 85%
    16:00 +9°C° 0.1 mm 3 mps 737 mmHg 88%
    17:00 +9°C° 0.1 mm 3 mps 737 mmHg 89%
    18:00 +8°C° 0.1 mm 3 mps 737 mmHg 90%
    19:00 +7°C° 0.1 mm 2 mps 738 mmHg 91%
    20:00 +7°C° 0 mm 2 mps 738 mmHg 92%
    21:00 +6°C° 0 mm 2 mps 738 mmHg 92%
    22:00 +5°C° 0 mm 2 mps 738 mmHg 92%
    23:00 +5°C° 0 mm 2 mps 738 mmHg 93%
    Show more